This demonstration page uses our WeatherBlox Daily Observations layout. Learn more.

Left ArrowRight Arrow

38.20091, -84.87328

Hourly Observations for August 21, 2017

Temp ( °F °C ) Dew Point ( °F °C ) Humidity (%) Winds ( mph kmh ) Pressure ( in mb ) Visibility ( mi km ) Precip ( " mm )
12:53 am 00:53 Clear 73 22.8 67 19.4 81 81 SSW 5 7 30.10 1019 10 16 0.00 0.00
1:53 am 01:53 Clear 74 23.3 66 18.9 76 76 Calm 30.09 1019 10 16 0.00 0.00
2:53 am 02:53 Clear 70 21.1 66 18.9 87 87 Calm 30.10 1019 10 16 0.00 0.00
3:53 am 03:53 Clear 70 21.1 65 18.3 84 84 Calm 30.11 1020 10 16 0.00 0.00
4:53 am 04:53 Clear 69 20.6 65 18.3 87 87 Calm 30.11 1020 10 16 0.00 0.00
5:53 am 05:53 Clear 68 20 64 17.8 87 87 Calm 30.12 1020 10 16 0.00 0.00
6:53 am 06:53 Clear 69 20.6 65 18.3 87 87 SE 5 7 30.13 1020 9 14 0.00 0.00
7:53 am 07:53 Sunny 69 20.6 65 18.3 87 87 Calm 30.16 1021 10 16 0.00 0.00
8:53 am 08:53 Sunny 76 24.4 68 20 77 77 SE 3 6 30.15 1021 10 16 0.00 0.00
9:53 am 09:53 Sunny 81 27.2 67 19.4 62 62 S 6 9 30.15 1021 10 16 0.00 0.00
10:53 am 10:53 Sunny 85 29.4 70 21.1 61 61 SSW 3 6 30.15 1021 10 16 0.00 0.00
11:53 am 11:53 Sunny 88 31.1 66 18.9 48 48 SW 7 11 30.15 1021 10 16 0.00 0.00
12:53 pm 12:53 Sunny 89 31.7 67 19.4 48 48 S 5 7 30.14 1021 10 16 0.00 0.00
1:53 pm 13:53 Sunny 89 31.7 65 18.3 45 45 SW 9 15 30.12 1020 10 16 0.00 0.00
2:53 pm 14:53 Sunny 84 28.9 69 20.6 61 61 SSW 3 6 30.11 1020 10 16 0.00 0.00
3:53 pm 15:53 Sunny 90 32.2 67 19.4 47 47 S 8 13 30.10 1019 10 16 0.00 0.00
4:53 pm 16:53 Sunny 90 32.2 65 18.3 44 44 S 10 17 30.08 1019 10 16 0.00 0.00
5:53 pm 17:53 Sunny 89 31.7 65 18.3 45 45 SW 6 9 30.08 1019 10 16 0.00 0.00
6:53 pm 18:53 Sunny 87 30.6 65 18.3 48 48 SSW 5 7 30.08 1019 10 16 0.00 0.00
7:53 pm 19:53 Sunny 83 28.3 69 20.6 63 63 SSW 5 7 30.08 1019 10 16 0.00 0.00
8:53 pm 20:53 Clear 81 27.2 68 20 65 65 S 6 9 30.08 1019 10 16 0.00 0.00
9:53 pm 21:53 Clear 78 25.6 69 20.6 74 74 SSW 5 7 30.07 1018 10 16 0.00 0.00
10:53 pm 22:53 Clear 79 26.1 68 20 69 69 S 6 9 30.08 1019 10 16 0.00 0.00
11:53 pm 23:53 Clear 77 25 68 20 74 74 SSW 6 9 30.07 1018 10 16 0.00 0.00

Powered by AerisWeather